Regional Weather Roundup
Issued by NWS State College, PA

Home | Current Version | Previous Version | Text Only | Print | Product List | Glossary On
Versions: 1 2 3 4 5 6 7 8 9 10 11 12 13 14 15 16 17 18 19 20 21 22 23 24 25 26 27 28 29 30 31 32 33 34 35 36 37 38 39 40 41 42 43 44 45 46 47 48 49 50
000
ASUS41 KCTP 252303
RWRCTP

REGIONAL WEATHER ROUNDUP
NATIONAL WEATHER SERVICE STATE COLLEGE PA
700 PM EDT MON JUL 25 2016

Note: "fair" indicates few or no clouds below 12,000 feet with no
significant weather and/or obstructions to visibility.

* = STATION THAT DOES NOT REPORT PRECIPITATION /E.G. RAIN...SNOW...ETC/
    THUNDER OR FOG.

PAZ002>004-007>009-013>016-020>023-029>032-260000-
WESTERN PENNSYLVANIA

CITY           SKY/WX    TMP DP  RH WIND       PRES   REMARKS
ERIE           SUNNY     81  71  71 W9G20     29.89F
MEADVILLE      PTSUNNY   78  67  68 NW6       29.94S
FRANKLIN*      MOSUNNY   81  68  65 W6        29.96S
NEW CASTLE     FAIR      87  68  52 W9        29.93S
BEAVER COUNTY  SUNNY     86  64  48 W8        29.94S
BUTLER*        SUNNY     86  68  54 W7        29.97R
PITTSBURGH INT MOSUNNY   88  66  48 NW13      29.94R
PITTSBURGH     MOSUNNY   87  68  52 NW5       29.94R
INDIANA*       SUNNY     81  73  78 W6        29.98S
LATROBE        PTSUNNY   82  72  69 SW7       29.96R
WASHINGTON CO* MOSUNNY   88  72  58 CALM      29.96R
$$

PAZ004>006-010>012-017>019-024>028-033>037-041-042-045-046-049>053-260000-
CENTRAL PENNSYLVANIA

CITY           SKY/WX    TMP DP  RH WIND       PRES   REMARKS
BRADFORD       CLOUDY    78  68  71 W9        29.96S
DUBOIS         CLOUDY    79  72  79 SE7       29.95S
CLEARFIELD     MOSUNNY   77  72  84 S6        29.95S
JOHNSTOWN      CLOUDY    78  67  68 SW8       30.01R
ALTOONA        MOSUNNY   83  66  56 W9        29.96R
STATE COLLEGE  MOSUNNY   75  70  83 CALM      29.93F
WILLIAMSPORT   CLOUDY    75  68  78 CALM      29.89S
SELINSGROVE    CLOUDY    73  71  93 E3        29.91F
FT INDIANTOWN  TSTM      70  68  92 VRB7G21   29.92S FOG
CAPITAL CITY   TSTM      77  71  82 E9        29.91R
HARRISBURG     TSTM      74  74 100 NE9G17    29.89R FOG
YORK           CLOUDY    86  77  74 CALM      29.86S HX  97
$$

PAZ038>040-043-044-047-048-054-055-060>062-067>071-260000-
EASTERN PENNSYLVANIA

CITY           SKY/WX    TMP DP  RH WIND       PRES   REMARKS
SCRANTON       LGT RAIN  73  72  96 VRB3      29.89F FOG
MOUNT POCONO   LGT RAIN  68  67  96 SW3       29.97F
ALLENTOWN      LGT RAIN  74  69  85 SE5       29.90F
QUAKERTOWN*    CLOUDY    73  70  88 NE8       29.92F
READING        CLOUDY    72  68  87 NW7       29.94R THUNDER
LANCASTER      CLOUDY    76  67  73 N20G32    29.91R
COATESVILLE    MOCLDY    84  73  70 N14G22    29.93R
POTTSTOWN      TSTM      73  70  90 NE14      29.93R FOG
BLUE BELL      CLOUDY    73  72  94 N14G22    29.93R VSB 1
DOYLESTOWN     TSTM      71  70  96 NE7       29.91R
WILLOW GROVE   NOT AVBL
NORTH PHILA    HVY RAIN  75  71  87 N28G39    29.89R VSB 3/4
PHILADELPHIA   PTSUNNY   94  74  52 SW15G26   29.83S THUNDER HX 104
$$




USA.gov is the U.S. government's official web portal to all federal, state and local government web resources and services.